Back to catalog

SL-6 R/B(2)

AliveHEO
NORAD 13016·ROCKET BODY·🇷🇺 Russia

Launched Dec 23, 1981 from Baikonur Cosmodrome

Loading…

Next Passes (next 24 hours)

TLE

FreshSource: Space-Track

Epoch: Sep 13, 2026, 04:55 UTC

1 13016U 81123D   26256.20532307  .00000031  00000-0  25753-3 0  9998
2 13016  63.0523 350.8332 7129356 286.4272  11.3349  2.40518679362486

Track SL-6 R/B(2) in real time with AllMySat

Download on the App Store